Wind_Speed
12 13 12 11 11 11 11 12 12 11 11 11 11 11 9 6 7 11 11 10 10 9 8 7 6 5 3 2 2 4 4 3 3 3 2 2 3 3 3 2 2 2 1 1 3 3 3 4 5 5 8 10 14 16 15 14 13 5 5 6 5 4
11 11 9 10 10 9 8 10 11 9 10 11 11 11 9 7 7 10 9 8 10 9 7 6 5 3 2 1 2 3 3 3 4 4 3 2 2 3 2 1 2 2 1 0 2 5 4 3 5 6 8 9 11 13 11 10 11 4 7 6 5 5
12 10 8 11 10 9 8 9 10 8 8 10 12 12 10 8 8 9 8 7 9 9 7 6 5 3 2 2 1 2 3 3 3 3 2 1 2 2 2 0 1 1 0 0 2 6 6 4 3 5 8 8 8 9 7 7 9 5 8 5 6 8
11 11 10 10 11 10 9 8 8 8 8 10 10 11 11 9 10 10 10 8 9 10 8 7 6 2 4 3 2 3 3 2 2 3 2 2 2 2 1 0 1 2 2 2 4 8 6 3 2 3 6 7 7 7 7 8 8 4 7 4 6 8
8 11 11 8 10 12 10 9 9 9 9 10 8 9 11 11 10 11 11 10 11 11 8 7 7 3 4 2 1 1 2 1 1 2 3 1 2 2 1 2 3 4 5 5 8 9 6 1 1 2 4 4 5 7 6 8 8 5 7 5 7 6
8 6 7 8 9 12 11 10 10 10 8 9 7 9 13 12 11 12 12 12 13 13 10 8 6 5 3 2 1 0 1 1 1 3 3 1 1 2 1 2 2 5 6 7 7 7 5 7 4 3 3 2 3 6 5 5 6 6 7 5 5 5
10 5 5 8 8 9 9 10 10 8 8 10 9 12 16 13 14 16 13 12 13 12 11 7 5 7 6 4 3 2 2 1 4 6 4 3 3 1 1 0 1 4 6 7 9 9 9 11 10 8 6 4 2 5 6 4 4 5 7 4 3 4
8 7 6 7 7 8 8 9 10 7 9 12 12 15 17 12 13 15 10 11 11 8 9 8 7 9 8 6 4 4 5 3 5 8 5 4 5 5 4 3 4 4 6 8 9 10 11 11 11 10 7 5 4 3 6 6 4 5 6 4 3 4
7 7 6 6 7 8 8 9 9 8 10 13 13 13 13 11 10 10 7 8 9 7 9 9 9 9 7 9 7 7 7 5 6 7 5 5 7 7 6 5 5 4 5 5 6 8 9 8 9 11 9 8 6 2 4 5 5 4 5 4 3 4
6 5 4 5 3 3 6 6 5 7 9 10 9 10 11 11 10 9 9 9 9 9 11 9 7 8 8 10 10 9 8 7 7 7 6 5 6 7 7 8 6 4 4 2 3 5 8 8 8 11 10 9 7 5 4 5 5 4 4 6 5 5
7 8 6 3 3 2 2 2 6 6 9 8 7 10 12 11 10 10 11 12 11 11 12 10 9 10 11 10 10 9 6 7 6 6 6 5 6 7 7 6 4 4 5 5 3 4 6 8 8 8 8 6 6 8 5 5 6 5 4 6 7 7
9 11 10 5 5 5 3 3 4 5 8 10 9 10 9 9 9 8 9 10 10 11 11 10 11 11 11 7 7 8 6 5 4 6 8 7 8 8 7 5 4 5 6 8 9 8 7 7 7 7 8 7 7 7 6 7 7 6 5 6 8 7
7 10 11 6 5 6 6 6 4 1 4 8 9 9 8 10 9 7 8 9 8 10 11 10 10 8 6 3 2 5 5 2 3 9 11 10 11 10 9 8 8 9 7 9 11 10 9 9 8 7 8 9 9 10 9 7 7 7 7 8 8 8
6 10 9 5 6 6 6 5 5 6 5 8 9 8 7 8 7 7 8 8 8 10 11 11 10 8 7 6 5 5 6 4 5 8 11 11 13 13 12 13 12 11 9 10 11 10 9 7 6 7 8 8 9 11 12 11 8 7 8 9 9 9
8 9 8 4 5 4 5 6 5 7 8 8 6 5 3 2 4 7 10 8 8 11 11 12 12 11 10 10 11 10 8 6 7 7 9 10 12 13 14 14 14 11 9 9 9 9 8 8 8 7 6 7 8 8 9 11 11 11 8 8 11 11
12 10 7 4 4 2 0 4 4 5 5 4 3 1 1 1 1 3 6 8 8 10 9 11 11 11 13 12 12 12 11 9 10 8 9 10 11 14 14 14 13 11 10 9 7 6 5 7 10 9 7 6 6 6 6 6 8 12 12 10 10 12
13 10 8 6 5 5 4 5 4 4 4 4 5 4 4 3 1 3 2 5 6 7 7 8 9 9 11 10 10 12 12 12 13 10 9 12 13 15 15 14 14 13 11 10 7 6 6 7 8 9 8 7 7 6 6 4 4 8 11 12 12 12
11 9 8 8 8 7 4 6 5 4 5 3 3 3 3 3 2 3 4 5 5 5 7 8 9 8 9 10 10 11 11 13 13 9 9 12 14 15 14 13 14 14 12 10 9 9 10 9 7 6 6 6 7 8 8 8 7 7 8 11 12 13
12 9 8 8 9 7 5 6 5 3 6 4 3 2 2 0 2 1 2 3 3 4 5 6 6 7 7 9 9 8 10 13 11 8 8 12 14 15 14 15 15 14 12 12 12 12 11 9 6 5 6 7 8 8 9 10 13 13 10 11 12 12
11 9 9 9 7 8 6 6 6 5 4 4 3 3 3 1 1 1 3 4 3 3 3 3 2 3 3 5 5 5 9 10 9 7 8 11 13 15 16 16 16 14 13 13 14 13 11 10 8 7 9 10 9 7 7 9 13 16 13 12 12 12
11 10 10 10 8 7 5 4 6 5 3 3 1 2 4 3 2 3 4 5 4 3 3 4 4 3 2 3 4 2 4 7 8 8 7 9 11 14 17 15 14 14 14 15 15 14 12 11 10 10 11 11 9 6 6 7 9 13 14 13 13 13
11 10 10 11 8 7 5 4 7 5 3 5 5 5 4 3 3 3 4 5 4 3 3 2 4 5 6 2 3 2 2 3 5 6 7 8 8 11 14 14 12 12 13 14 15 14 13 13 11 10 10 9 7 7 6 5 6 9 11 13 14 14
10 10 12 12 10 9 7 5 6 5 6 8 8 8 4 4 4 2 3 3 2 5 4 4 2 3 6 6 4 1 2 3 3 3 4 6 6 7 9 10 9 9 11 12 13 12 10 12 12 10 9 8 7 6 5 4 4 5 5 8 11 12
12 12 13 14 12 11 9 8 8 7 8 8 7 6 4 5 6 4 5 3 3 5 6 8 8 5 6 7 8 5 1 1 2 1 2 4 4 5 5 7 7 8 10 12 11 10 10 11 11 10 8 7 6 5 4 4 3 3 2 4 7 8
15 14 14 15 13 13 11 10 11 10 9 7 5 7 6 7 7 5 5 4 5 5 5 8 9 7 6 7 9 7 4 3 2 2 1 1 1 1 2 4 6 7 9 10 9 9 10 11 11 11 10 6 4 3 4 5 3 2 1 2 4 6
19 17 15 14 13 13 12 10 9 9 9 9 9 10 7 8 8 6 5 5 6 7 7 8 8 8 9 9 9 6 5 6 5 6 6 4 4 2 1 1 4 5 5 6 8 9 9 10 12 13 11 8 6 6 6 5 4 4 3 4 5 6
22 19 17 16 14 14 13 10 9 9 9 11 12 12 9 8 9 7 5 5 7 7 8 9 10 10 11 10 9 8 8 7 5 6 7 7 7 5 4 5 5 3 3 2 3 5 6 7 10 10 8 8 8 9 10 9 8 7 5 5 6 8
22 21 19 17 15 15 14 13 13 12 11 12 12 12 11 9 8 7 6 6 8 9 9 10 11 10 10 10 10 11 11 10 9 7 6 7 9 6 5 7 7 6 6 7 7 5 4 4 5 3 2 4 4 6 7 8 9 10 9 8 8 8
23 24 22 18 16 15 14 15 16 13 14 14 11 11 11 10 9 8 8 8 8 8 8 9 9 9 9 9 10 12 13 13 11 8 6 7 8 7 6 6 7 7 7 7 8 10 9 8 8 7 5 3 2 3 2 2 3 5 6 8 8 8
25 25 24 19 17 17 15 17 17 15 15 13 11 13 12 10 10 10 10 9 7 6 8 8 8 8 9 10 10 10 12 12 12 9 8 8 7 7 7 7 7 7 6 6 7 9 9 8 8 7 6 5 5 5 6 5 5 5 5 5 5 6
28 27 26 21 19 19 17 18 19 17 15 13 13 16 13 10 11 11 11 9 7 6 6 6 7 8 8 8 8 8 10 11 11 11 10 10 9 10 10 9 8 7 6 5 6 6 7 7 6 6 7 7 6 6 4 2 1 1 1 3 5 7
31 29 27 23 21 20 18 20 20 19 16 14 16 16 12 11 12 12 11 10 9 8 5 3 5 6 7 7 7 7 7 8 10 10 10 10 9 9 10 10 10 9 8 7 5 4 4 4 3 3 6 7 6 6 6 5 5 5 4 4 5 7
35 33 29 25 22 20 19 20 21 20 18 15 16 15 12 12 13 12 12 12 10 8 6 3 3 3 4 5 6 6 5 5 6 7 8 9 8 7 7 8 9 8 7 7 5 4 4 3 2 1 2 4 4 4 4 3 2 1 2 2 2 4
37 33 31 25 21 20 21 22 22 22 20 16 16 15 13 13 14 13 13 12 11 9 7 5 4 3 2 4 5 5 5 4 4 5 5 6 7 8 7 5 6 7 6 6 5 3 3 3 2 1 1 2 2 2 1 1 2 2 1 1 2 4
36 34 31 25 21 21 22 23 22 22 22 18 15 15 14 13 14 14 14 13 13 10 8 7 7 5 3 4 4 4 4 4 4 4 5 5 6 8 7 4 5 5 5 5 4 3 3 2 2 2 2 1 1 1 2 2 1 0 1 3 3 4
31 32 31 24 21 22 23 24 23 23 22 19 16 17 16 14 14 14 14 13 14 12 10 10 9 6 4 5 4 3 4 5 4 4 4 4 5 6 6 4 4 4 4 4 3 3 3 3 3 3 3 3 4 4 4 4 5 4 4 4 5 5
27 28 28 24 21 22 23 23 23 22 21 19 18 18 18 16 15 15 14 13 13 13 12 12 11 8 6 6 5 3 3 4 5 4 4 4 4 4 4 4 4 3 3 4 4 3 3 4 4 4 5 5 5 5 5 5 5 5 5 5 6 6
Wind_Direction
155 166 175 175 172 175 181 186 190 193 191 193 196 205 219 204 192 203 197 193 195 191 190 182 176 179 191 225 283 306 301 295 284 267 254 270 306 315 295 267 238 250 311 82 120 110 130 149 142 127 132 147 152 155 143 123 117 124 266 267 276 265
157 167 177 172 170 183 188 188 195 198 200 206 214 222 224 209 200 213 215 206 198 191 197 195 192 209 224 275 303 304 320 322 293 260 234 258 306 322 311 268 264 288 292 245 152 144 128 141 152 136 138 139 153 165 149 131 127 140 263 278 325 323
151 161 175 164 161 188 187 184 202 206 214 220 223 227 226 212 199 217 231 212 199 194 200 212 211 241 301 338 308 272 315 337 302 256 234 272 305 316 323 330 286 320 193 146 137 152 126 95 127 131 140 138 146 160 149 142 141 182 248 274 327 328
140 149 169 163 150 166 177 186 207 207 219 233 231 224 221 217 206 220 232 213 205 202 205 218 210 250 322 310 266 253 284 333 319 269 251 270 282 291 289 218 184 141 125 123 124 140 123 70 62 125 145 134 135 161 168 151 136 208 252 265 302 326
129 142 162 165 151 156 170 187 204 207 219 238 238 231 223 217 218 226 227 213 206 207 209 207 201 251 307 284 223 265 279 325 349 260 259 272 333 324 226 179 154 143 130 129 121 118 123 195 317 99 143 131 148 166 159 141 139 205 245 259 285 313
140 142 150 155 164 164 169 188 203 203 223 247 237 236 233 222 224 220 211 210 208 207 203 190 193 226 246 232 211 51 8 27 177 219 257 242 42 359 217 149 133 148 134 134 134 126 161 200 191 138 164 225 194 150 127 139 156 197 237 255 287 308
144 151 139 143 166 169 167 185 203 206 221 243 234 228 235 232 222 212 200 207 217 208 191 187 204 213 208 206 219 203 163 181 195 190 206 200 169 139 164 259 227 152 145 163 164 162 192 197 183 167 175 224 233 142 139 167 175 204 245 255 298 312
148 154 143 151 167 175 184 194 207 227 227 237 238 228 236 240 217 210 204 205 223 217 188 196 218 219 210 194 194 193 187 194 186 183 193 194 180 158 154 244 249 177 169 183 173 172 192 196 189 173 163 191 207 178 172 173 176 209 249 262 295 299
186 158 153 182 173 181 205 206 210 223 225 238 246 238 244 251 227 220 225 218 228 227 216 219 218 219 201 179 173 170 171 171 173 177 188 193 184 160 163 217 224 189 185 185 186 184 184 192 198 186 182 192 187 200 208 187 178 197 246 264 273 273
198 155 164 206 185 200 210 217 237 227 226 237 247 252 250 247 242 239 236 236 235 231 240 240 225 218 192 173 164 156 152 150 162 174 186 193 180 164 177 210 217 199 187 176 237 211 181 186 191 192 204 204 186 188 220 216 193 192 239 250 260 266
181 164 159 186 202 241 214 267 299 278 259 260 256 251 246 242 241 239 230 231 231 232 241 236 229 213 185 180 165 154 156 153 163 176 184 194 177 173 182 202 219 204 181 169 218 240 202 192 182 189 204 200 202 207 221 239 207 196 237 249 260 271
188 179 149 135 181 203 190 215 305 320 285 278 278 263 253 255 244 228 221 226 229 231 239 236 239 216 182 183 159 159 182 174 204 201 191 202 189 181 181 179 170 172 188 186 193 205 202 201 194 193 195 188 204 213 226 255 238 211 228 256 267 271
189 170 144 143 170 182 187 190 201 193 270 273 277 274 261 257 239 219 228 236 231 227 236 242 251 241 215 237 164 173 200 214 263 214 196 198 192 187 189 191 179 175 197 207 201 198 196 201 201 198 200 196 197 198 199 225 251 238 229 241 260 274
157 136 145 203 184 180 198 182 183 184 226 260 256 252 249 251 229 217 241 239 226 228 234 235 243 256 260 263 247 236 237 273 291 234 206 190 189 195 193 192 197 202 212 213 208 203 202 204 203 202 203 205 205 205 200 194 207 224 234 240 240 253
140 141 156 207 179 192 213 169 173 199 228 259 253 223 205 265 244 236 244 235 231 239 233 227 229 236 245 247 241 246 249 264 289 252 215 193 190 193 188 189 203 220 217 203 200 198 205 212 213 216 218 226 224 223 219 207 204 205 215 243 245 243
148 165 162 158 158 151 147 156 192 226 246 299 350 270 125 33 250 231 239 235 235 230 219 224 227 230 239 242 243 249 247 252 273 260 215 201 198 191 192 200 205 204 191 184 192 197 215 224 217 219 228 241 238 235 234 227 225 216 211 225 242 248
156 166 153 140 127 101 70 69 49 36 46 22 28 21 6 351 326 61 107 205 223 217 212 227 227 230 238 239 250 257 247 243 258 258 222 209 205 202 208 215 205 193 185 179 185 204 229 233 220 217 225 247 249 243 242 243 259 240 228 227 228 236
164 165 149 134 112 107 105 79 61 55 75 67 43 45 36 20 355 31 82 136 164 188 205 219 222 229 241 244 246 253 250 245 247 246 229 217 211 211 212 208 199 192 190 182 177 196 217 225 227 221 223 249 251 248 254 249 257 268 256 243 233 228
165 167 149 134 125 118 122 106 99 74 65 76 70 90 155 5 294 292 42 90 126 147 177 195 200 209 231 245 237 238 253 253 250 243 228 224 221 216 207 199 197 193 193 187 180 192 211 221 236 240 232 252 257 253 259 249 244 253 259 250 243 234
166 169 151 133 118 98 99 97 96 96 88 107 117 141 152 79 321 123 75 67 83 90 100 124 135 165 207 244 232 230 253 253 253 249 233 232 233 227 218 210 206 200 193 190 188 195 211 228 244 255 251 258 263 256 258 254 245 248 254 249 242 238
170 170 145 121 106 97 114 113 106 124 126 95 76 181 153 134 166 178 149 140 146 144 113 116 130 134 159 267 269 241 248 253 253 243 231 235 238 235 232 225 217 210 203 203 207 212 223 237 245 254 256 257 261 262 258 263 265 265 263 252 240 232
178 168 135 121 125 132 145 124 114 126 118 88 87 116 129 137 190 237 192 180 187 153 111 134 167 152 146 199 276 295 264 248 246 233 231 237 232 232 234 230 224 223 218 215 222 227 233 238 235 240 253 259 262 259 256 266 288 290 273 250 236 228
186 171 146 143 152 153 158 135 123 135 139 139 143 154 158 117 103 74 108 138 162 138 114 95 103 136 153 161 142 57 307 253 240 227 232 234 217 218 227 223 220 224 222 217 223 229 232 237 234 232 241 252 254 242 242 265 300 311 279 244 229 223
184 181 167 157 160 164 171 160 156 168 167 177 186 172 154 116 107 99 109 118 140 150 139 122 116 127 160 163 147 127 101 244 258 255 247 234 200 195 201 203 212 215 215 217 224 231 233 232 232 236 238 241 246 236 233 248 293 344 298 246 231 224
175 186 182 164 168 174 175 170 170 177 174 174 148 122 115 100 98 93 95 92 94 102 109 121 127 129 136 144 143 137 123 122 112 92 53 343 83 150 187 204 217 209 207 220 227 233 236 227 225 238 241 236 247 256 249 245 267 317 281 255 242 229
174 188 192 175 176 174 173 177 167 158 151 137 123 128 128 109 114 119 108 101 96 94 95 102 107 108 108 117 129 131 126 133 141 139 140 133 117 114 133 189 216 209 209 227 229 229 236 230 227 236 239 243 259 267 264 253 257 273 260 251 252 241
176 192 198 184 179 170 171 174 153 143 136 132 138 145 145 140 150 154 133 115 103 93 89 88 88 91 97 104 118 126 117 108 108 125 138 141 132 125 147 153 151 169 175 156 194 222 229 218 216 227 238 246 255 258 259 258 262 266 263 257 253 250
179 193 200 190 180 169 167 161 152 150 144 146 158 158 156 162 163 149 122 102 98 93 86 86 88 91 101 108 115 121 115 98 86 98 120 133 134 135 160 165 147 139 143 120 105 109 111 135 160 167 217 240 252 267 266 265 268 266 264 266 264 265
183 193 200 191 180 172 163 154 153 153 151 160 166 158 158 160 151 137 123 112 111 111 104 102 102 100 103 107 113 121 123 116 107 110 125 133 146 156 156 158 155 158 168 156 129 117 108 106 111 98 74 61 17 351 352 343 316 301 284 274 275 294
186 195 199 190 179 174 163 152 152 155 160 168 160 151 158 159 148 141 140 142 140 124 113 109 103 99 98 100 106 115 121 121 112 105 101 100 112 129 127 129 144 160 177 183 168 153 146 143 142 134 116 101 89 74 61 54 43 34 17 344 322 312
188 195 195 188 180 175 167 155 154 161 169 170 155 157 167 163 154 152 152 154 143 128 123 112 101 98 98 98 102 108 115 117 113 107 100 93 93 102 107 107 111 124 135 147 165 176 185 192 193 187 174 161 140 130 130 115 105 99 46 356 319 302
187 194 194 187 181 178 170 159 158 166 174 171 159 166 177 165 160 161 158 155 153 156 157 130 110 105 99 100 102 103 111 115 118 118 110 103 104 109 114 115 113 116 117 117 125 134 155 183 200 188 183 187 189 197 214 231 242 244 250 264 284 308
185 192 193 186 181 180 172 164 165 169 176 175 163 169 178 166 166 168 162 163 167 173 178 168 153 138 119 115 111 105 106 110 118 122 119 118 114 104 106 118 121 119 116 115 114 113 117 125 124 134 157 178 199 214 222 224 216 226 317 292 279 309
184 190 190 184 183 183 175 169 171 173 178 179 163 168 180 173 173 173 167 171 177 181 186 190 197 199 163 132 128 125 115 109 111 114 119 124 114 101 99 114 121 117 112 107 101 98 102 101 105 112 132 181 222 240 233 210 173 132 32 313 238 267
184 187 185 184 188 188 177 171 174 177 183 182 166 166 177 179 179 179 176 175 179 189 195 202 215 224 204 166 161 160 139 128 127 121 122 125 126 130 137 136 123 113 102 95 89 81 75 68 67 68 68 25 342 14 1 342 332 270 286 290 276 280
184 184 185 186 190 189 178 173 175 180 185 185 174 167 173 184 185 183 188 182 179 193 202 208 220 227 213 194 186 178 156 148 146 136 133 137 140 149 157 152 135 129 117 107 100 89 82 74 67 64 60 43 34 36 21 5 358 350 339 323 313 314
184 182 185 185 188 190 184 177 175 180 184 184 181 173 172 187 190 184 194 194 184 193 204 213 224 232 226 214 210 203 178 160 156 157 153 156 159 156 161 161 146 146 139 128 118 105 97 91 86 80 73 63 53 49 33 13 5 356 350 342 332 329
Height
1511 1512 1514 1516 1516 1516 1517 1519 1522 1523 1522 1522 1522 1523 1524 1526 1528 1529 1531 1532 1532 1533 1535 1536 1537 1537 1536 1535 1535 1536 1537 1538 1539 1540 1540 1540 1540 1541 1541 1542 1543 1543 1543 1543 1544 1545 1545 1545 1545 1546 1547 1548 1550 1550 1551 1552 1554 1555 1553 1554 1555 1555
1511 1512 1515 1517 1518 1518 1518 1519 1522 1523 1523 1523 1522 1522 1523 1526 1528 1529 1531 1532 1532 1534 1535 1537 1538 1537 1536 1534 1534 1535 1536 1537 1538 1539 1540 1540 1540 1541 1542 1542 1543 1543 1543 1543 1544 1545 1545 1546 1546 1547 1547 1548 1550 1551 1551 1553 1554 1554 1552 1554 1555 1555
1512 1512 1514 1517 1519 1520 1520 1521 1523 1524 1524 1523 1522 1522 1524 1526 1528 1530 1532 1533 1534 1534 1536 1537 1537 1538 1536 1535 1534 1535 1536 1537 1538 1539 1539 1540 1541 1541 1542 1542 1543 1543 1543 1543 1544 1545 1546 1546 1547 1547 1548 1549 1550 1550 1551 1552 1554 1553 1553 1554 1555 1555
1514 1514 1515 1517 1518 1520 1522 1522 1524 1524 1524 1523 1523 1523 1525 1526 1528 1530 1531 1533 1534 1534 1536 1537 1537 1537 1536 1535 1535 1536 1536 1536 1537 1539 1540 1541 1541 1542 1542 1542 1542 1542 1543 1543 1544 1545 1546 1547 1548 1548 1549 1549 1549 1550 1552 1553 1553 1553 1553 1554 1555 1555
1515 1516 1517 1517 1518 1520 1522 1523 1524 1524 1524 1523 1524 1525 1525 1526 1528 1530 1531 1532 1533 1534 1536 1536 1537 1537 1536 1535 1535 1535 1536 1537 1538 1539 1541 1542 1542 1542 1543 1543 1542 1542 1542 1543 1544 1546 1547 1548 1549 1549 1549 1549 1550 1551 1552 1553 1553 1553 1553 1554 1554 1555
1514 1516 1517 1519 1519 1519 1521 1522 1522 1523 1523 1524 1525 1525 1525 1526 1527 1530 1531 1531 1532 1534 1535 1535 1536 1535 1535 1536 1535 1536 1537 1538 1540 1541 1542 1543 1543 1543 1544 1544 1543 1542 1542 1543 1545 1547 1549 1549 1549 1549 1550 1551 1551 1551 1552 1553 1553 1553 1553 1554 1554 1555
1514 1515 1516 1519 1520 1519 1519 1520 1520 1521 1522 1523 1524 1524 1525 1526 1528 1530 1531 1531 1531 1533 1535 1534 1535 1534 1535 1537 1537 1538 1538 1539 1541 1542 1543 1543 1543 1544 1544 1544 1544 1543 1543 1544 1545 1547 1549 1550 1550 1550 1550 1551 1551 1552 1553 1553 1554 1553 1553 1554 1554 1554
1513 1515 1516 1517 1519 1518 1518 1519 1519 1520 1520 1523 1524 1525 1526 1526 1526 1526 1529 1531 1531 1532 1533 1534 1534 1533 1535 1537 1537 1537 1537 1539 1540 1541 1542 1542 1542 1543 1543 1545 1545 1544 1544 1544 1545 1546 1548 1549 1550 1550 1550 1551 1551 1552 1553 1553 1554 1554 1553 1554 1554 1554
1512 1514 1516 1517 1518 1518 1518 1519 1520 1521 1521 1524 1526 1527 1527 1526 1524 1524 1526 1529 1531 1532 1532 1533 1533 1532 1533 1535 1536 1536 1537 1538 1539 1540 1541 1541 1541 1541 1542 1545 1546 1545 1545 1544 1545 1546 1548 1549 1550 1550 1550 1550 1551 1552 1553 1553 1554 1555 1554 1554 1554 1555
1511 1514 1516 1517 1518 1519 1519 1519 1520 1522 1523 1524 1525 1526 1527 1527 1526 1526 1527 1528 1530 1530 1530 1531 1532 1532 1534 1536 1537 1536 1537 1538 1539 1540 1540 1541 1540 1540 1542 1545 1546 1546 1546 1546 1546 1547 1548 1549 1550 1550 1550 1550 1551 1552 1553 1553 1554 1555 1555 1554 1554 1555
1512 1513 1516 1517 1518 1518 1518 1519 1519 1520 1521 1521 1522 1523 1525 1526 1527 1527 1528 1528 1529 1529 1529 1530 1531 1532 1536 1539 1538 1537 1537 1538 1539 1540 1540 1541 1541 1541 1544 1546 1547 1547 1547 1547 1547 1548 1549 1549 1549 1550 1550 1551 1552 1552 1552 1553 1554 1555 1555 1555 1555 1555
1512 1512 1514 1516 1517 1518 1518 1519 1519 1519 1518 1517 1520 1522 1523 1524 1525 1526 1527 1527 1528 1529 1529 1530 1530 1531 1535 1538 1538 1538 1538 1538 1539 1540 1540 1541 1541 1542 1544 1545 1547 1547 1547 1547 1547 1547 1548 1548 1549 1549 1550 1551 1551 1552 1553 1553 1554 1554 1555 1555 1555 1555
1510 1511 1513 1514 1515 1517 1518 1518 1519 1519 1519 1517 1520 1522 1522 1523 1524 1525 1526 1526 1527 1528 1528 1529 1529 1530 1532 1535 1537 1537 1538 1538 1538 1539 1539 1541 1541 1541 1542 1543 1545 1546 1547 1547 1546 1547 1547 1547 1547 1548 1548 1549 1550 1551 1551 1552 1553 1554 1555 1555 1555 1555
1510 1511 1512 1513 1514 1515 1516 1517 1518 1519 1519 1518 1521 1522 1522 1522 1523 1524 1524 1524 1525 1526 1527 1527 1529 1530 1531 1533 1535 1536 1537 1538 1538 1538 1539 1539 1540 1540 1540 1541 1542 1543 1545 1546 1546 1546 1547 1547 1547 1547 1547 1548 1548 1549 1550 1550 1551 1552 1553 1555 1555 1555
1510 1511 1512 1512 1513 1513 1514 1515 1516 1517 1517 1518 1520 1522 1522 1521 1522 1523 1523 1523 1524 1526 1527 1527 1528 1529 1529 1531 1534 1534 1535 1537 1538 1539 1538 1538 1539 1539 1539 1540 1540 1541 1544 1544 1545 1546 1546 1547 1547 1547 1548 1548 1549 1549 1549 1549 1550 1550 1551 1553 1554 1554
1510 1511 1512 1512 1512 1512 1512 1513 1514 1515 1516 1517 1518 1520 1521 1521 1522 1522 1522 1523 1525 1526 1527 1527 1528 1528 1527 1529 1531 1531 1531 1534 1537 1538 1537 1537 1538 1538 1538 1539 1539 1540 1542 1543 1543 1545 1546 1547 1548 1548 1549 1549 1549 1549 1549 1549 1550 1550 1550 1550 1551 1553
1511 1511 1512 1512 1512 1512 1513 1513 1513 1514 1515 1516 1517 1519 1520 1520 1520 1521 1523 1524 1525 1527 1528 1528 1529 1529 1527 1528 1530 1528 1528 1532 1535 1536 1536 1536 1536 1536 1536 1538 1538 1539 1540 1541 1542 1544 1546 1548 1548 1549 1549 1549 1549 1548 1548 1548 1549 1549 1549 1549 1550 1551
1511 1512 1512 1513 1513 1513 1513 1514 1514 1514 1515 1516 1517 1519 1520 1520 1520 1521 1523 1524 1525 1527 1528 1528 1529 1529 1527 1528 1529 1529 1529 1531 1533 1534 1535 1534 1534 1534 1535 1537 1538 1539 1539 1540 1540 1543 1546 1548 1548 1549 1549 1549 1548 1548 1547 1548 1548 1548 1549 1549 1549 1549
1511 1512 1512 1513 1513 1514 1514 1514 1515 1515 1516 1517 1518 1519 1520 1520 1520 1521 1523 1524 1525 1526 1527 1527 1528 1528 1527 1527 1529 1529 1530 1531 1532 1534 1534 1534 1533 1533 1534 1536 1537 1538 1538 1538 1539 1541 1544 1547 1547 1548 1548 1548 1547 1547 1547 1547 1546 1547 1547 1548 1548 1548
1511 1511 1512 1513 1513 1514 1515 1515 1515 1516 1517 1518 1518 1519 1520 1520 1520 1522 1523 1524 1525 1526 1526 1526 1527 1527 1527 1527 1528 1529 1530 1531 1531 1533 1533 1533 1533 1533 1533 1534 1536 1537 1537 1538 1539 1540 1542 1544 1545 1545 1545 1546 1546 1546 1545 1545 1545 1546 1546 1546 1547 1547
1510 1510 1511 1512 1514 1515 1516 1516 1516 1517 1518 1518 1519 1519 1520 1521 1521 1521 1522 1523 1524 1525 1525 1526 1526 1526 1527 1527 1528 1529 1530 1531 1530 1531 1531 1532 1533 1532 1532 1533 1535 1536 1537 1537 1538 1539 1541 1543 1544 1544 1544 1545 1545 1544 1544 1544 1544 1544 1544 1545 1545 1545
1509 1510 1511 1512 1514 1516 1516 1517 1517 1517 1518 1518 1519 1519 1520 1521 1521 1521 1522 1522 1523 1524 1525 1525 1525 1526 1527 1527 1527 1528 1529 1529 1529 1529 1529 1530 1531 1531 1532 1532 1534 1535 1536 1537 1537 1538 1540 1542 1542 1542 1543 1543 1543 1542 1542 1542 1542 1542 1542 1543 1543 1543
1508 1509 1511 1512 1514 1515 1516 1517 1517 1518 1518 1518 1519 1519 1520 1521 1521 1522 1522 1523 1523 1524 1524 1525 1525 1526 1526 1526 1526 1527 1527 1528 1528 1528 1528 1529 1530 1530 1531 1531 1532 1534 1535 1536 1536 1537 1538 1540 1540 1541 1541 1541 1541 1541 1541 1541 1541 1541 1541 1541 1542 1541
1507 1509 1510 1512 1513 1514 1515 1516 1517 1517 1517 1518 1519 1520 1521 1521 1522 1522 1522 1523 1523 1524 1524 1525 1525 1525 1525 1525 1525 1526 1527 1527 1527 1527 1528 1528 1528 1529 1530 1531 1532 1533 1534 1535 1535 1536 1537 1538 1539 1540 1540 1540 1540 1540 1540 1540 1540 1540 1540 1540 1540 1540
1506 1508 1509 1511 1511 1512 1514 1515 1516 1517 1517 1518 1519 1520 1521 1522 1522 1522 1522 1523 1523 1524 1524 1525 1525 1525 1525 1525 1526 1526 1527 1527 1527 1527 1527 1528 1528 1528 1529 1530 1531 1533 1534 1534 1535 1535 1536 1537 1538 1538 1539 1540 1541 1541 1541 1541 1540 1540 1540 1540 1540 1539
1505 1507 1508 1510 1510 1511 1513 1514 1515 1516 1518 1518 1519 1521 1522 1522 1523 1523 1523 1523 1523 1524 1524 1524 1525 1525 1525 1526 1526 1527 1527 1527 1527 1527 1527 1527 1528 1529 1530 1531 1532 1533 1534 1534 1534 1535 1535 1536 1537 1537 1539 1540 1541 1541 1541 1541 1541 1541 1540 1540 1540 1540
1504 1505 1507 1508 1509 1510 1512 1513 1515 1516 1518 1518 1519 1521 1522 1523 1523 1523 1523 1523 1524 1524 1524 1525 1525 1525 1526 1526 1527 1527 1527 1527 1527 1527 1527 1527 1529 1530 1530 1531 1532 1533 1534 1534 1534 1535 1535 1536 1537 1538 1539 1540 1540 1540 1541 1541 1541 1541 1540 1539 1539 1540
1503 1504 1506 1507 1508 1510 1511 1512 1515 1516 1518 1519 1519 1520 1521 1522 1523 1523 1524 1524 1524 1524 1525 1525 1525 1526 1526 1526 1527 1527 1527 1527 1528 1528 1528 1528 1529 1529 1530 1531 1532 1533 1533 1534 1534 1535 1536 1537 1538 1539 1539 1539 1540 1540 1540 1541 1541 1541 1540 1539 1539 1539
1502 1503 1505 1507 1508 1509 1510 1512 1514 1516 1518 1519 1519 1520 1521 1522 1523 1523 1524 1524 1525 1525 1525 1526 1526 1526 1526 1526 1527 1527 1527 1527 1528 1528 1528 1528 1529 1529 1530 1531 1532 1532 1533 1534 1535 1535 1536 1537 1538 1539 1539 1539 1540 1540 1540 1540 1540 1540 1539 1538 1538 1538
1502 1503 1504 1506 1507 1508 1509 1511 1513 1516 1517 1517 1519 1520 1521 1522 1523 1524 1524 1525 1525 1525 1526 1526 1526 1526 1526 1527 1527 1527 1528 1528 1528 1529 1529 1529 1529 1529 1530 1530 1531 1532 1532 1533 1535 1535 1536 1537 1538 1538 1539 1539 1539 1539 1540 1540 1540 1539 1538 1538 1537 1537
1500 1501 1502 1505 1506 1507 1508 1510 1512 1515 1515 1516 1518 1519 1520 1521 1522 1524 1524 1525 1526 1526 1526 1526 1527 1527 1527 1527 1528 1528 1528 1529 1529 1529 1529 1530 1530 1530 1530 1531 1531 1532 1532 1533 1534 1535 1536 1536 1537 1537 1538 1539 1539 1539 1539 1539 1539 1538 1538 1537 1537 1537
1498 1499 1501 1503 1504 1505 1507 1508 1511 1513 1514 1515 1516 1518 1519 1520 1522 1523 1524 1525 1526 1526 1527 1527 1527 1527 1528 1528 1528 1528 1529 1529 1530 1530 1530 1530 1531 1531 1531 1532 1532 1533 1533 1533 1534 1535 1535 1536 1536 1536 1537 1537 1537 1537 1538 1538 1538 1538 1537 1537 1536 1536
1495 1497 1499 1501 1502 1504 1505 1507 1510 1512 1513 1514 1515 1517 1518 1520 1521 1523 1524 1525 1526 1526 1526 1527 1527 1527 1528 1528 1529 1529 1529 1530 1530 1531 1531 1531 1532 1532 1532 1533 1533 1533 1534 1534 1535 1535 1535 1535 1536 1536 1536 1536 1536 1537 1537 1537 1537 1537 1537 1536 1536 1536
1492 1494 1497 1499 1501 1503 1504 1506 1508 1510 1512 1512 1513 1515 1517 1519 1521 1522 1524 1525 1526 1526 1526 1527 1527 1527 1528 1529 1529 1529 1530 1530 1531 1531 1532 1532 1533 1533 1534 1534 1534 1534 1535 1535 1535 1535 1535 1535 1536 1536 1536 1536 1536 1536 1536 1536 1536 1536 1536 1536 1536 1535
1489 1491 1494 1497 1499 1502 1503 1504 1507 1509 1511 1511 1512 1514 1516 1518 1520 1522 1523 1524 1525 1526 1526 1526 1527 1527 1528 1528 1529 1529 1530 1530 1531 1531 1532 1533 1533 1534 1534 1534 1534 1535 1535 1535 1536 1536 1536 1536 1536 1536 1536 1536 1536 1536 1536 1536 1536 1536 1536 1536 1535 1535
1490 1490 1493 1495 1498 1502 1503 1503 1506 1508 1509 1511 1512 1513 1516 1518 1520 1521 1522 1524 1525 1526 1526 1526 1526 1527 1528 1528 1529 1529 1530 1530 1531 1531 1532 1532 1533 1534 1534 1534 1535 1535 1535 1535 1536 1536 1536 1536 1536 1536 1536 1536 1536 1536 1536 1536 1536 1536 1536 1536 1535 1535
1493 1491 1492 1494 1497 1501 1503 1503 1505 1507 1509 1510 1511 1513 1515 1517 1519 1521 1522 1523 1525 1526 1526 1527 1527 1527 1528 1528 1529 1529 1530 1530 1531 1531 1532 1532 1533 1533 1534 1534 1534 1535 1535 1535 1536 1536 1536 1536 1536 1536 1536 1536 1536 1536 1536 1536 1536 1536 1536 1536 1535 1535